Time,TemperatureF,DewpointF,PressureIn,WindDirection,WindDirectionDegrees,WindSpeedMPH,WindSpeedGustMPH,Humidity,HourlyPrecipIn,Conditions,Clouds,dailyrainin,SoftwareType,DateUTC
2013-04-05 00:00:00,37.1,26.7,-100.00,WSW,240,2.5,11.2,65,0.00,,,-99.99,HOBO +U30 +Weather +,2013-04-05 04:00:00,
2013-04-05 00:15:00,36.5,27.1,-100.00,SW,234,1.3,15.4,68,0.00,,,-99.99,HOBO +U30 +Weather +,2013-04-05 04:15:00,
2013-04-05 00:30:00,36.2,27.4,-100.00,SW,232,3.4,10.1,70,0.00,,,-99.99,HOBO +U30 +Weather +,2013-04-05 04:30:00,
2013-04-05 00:45:00,36.0,27.8,-100.00,SW,225,5.4,12.5,72,0.00,,,-99.99,HOBO +U30 +Weather +,2013-04-05 04:45:00,
2013-04-05 01:00:00,36.0,28.3,-100.00,SW,226,5.8,13.0,73,0.00,,,-99.99,HOBO +U30 +Weather +,2013-04-05 05:00:00,
2013-04-05 01:15:00,35.7,28.7,-100.00,SW,236,3.8,10.7,75,0.00,,,-99.99,HOBO +U30 +Weather +,2013-04-05 05:15:00,
2013-04-05 01:30:00,35.6,29.0,-100.00,SW,229,4.3,12.5,76,0.00,,,-99.99,HOBO +U30 +Weather +,2013-04-05 05:30:00,
2013-04-05 01:45:00,35.5,29.2,-100.00,SW,236,1.3,9.6,77,0.00,,,-99.99,HOBO +U30 +Weather +,2013-04-05 05:45:00,
2013-04-05 02:00:00,35.2,29.2,-100.00,SW,232,2.0,10.7,78,0.00,,,-99.99,HOBO +U30 +Weather +,2013-04-05 06:00:00,
2013-04-05 02:15:00,35.2,29.3,-100.00,SW,233,2.9,9.6,78,0.00,,,-99.99,HOBO +U30 +Weather +,2013-04-05 06:15:00,
2013-04-05 02:30:00,35.3,29.2,-100.00,SW,222,2.9,9.2,78,0.00,,,-99.99,HOBO +U30 +Weather +,2013-04-05 06:30:00,
2013-04-05 02:45:00,35.2,29.1,-100.00,SW,222,0.9,9.2,78,0.00,,,-99.99,HOBO +U30 +Weather +,2013-04-05 06:45:00,
2013-04-05 03:00:00,34.9,28.9,-100.00,SW,232,2.5,10.3,78,0.00,,,-99.99,HOBO +U30 +Weather +,2013-04-05 07:00:00,
2013-04-05 03:15:00,34.8,28.7,-100.00,SW,232,4.3,10.1,78,0.00,,,-99.99,HOBO +U30 +Weather +,2013-04-05 07:15:00,
2013-04-05 03:30:00,34.8,28.8,-100.00,SW,234,0.9,7.4,78,0.00,,,-99.99,HOBO +U30 +Weather +,2013-04-05 07:30:00,
2013-04-05 03:45:00,34.5,28.7,-100.00,SW,233,2.0,7.8,79,0.00,,,-99.99,HOBO +U30 +Weather +,2013-04-05 07:45:00,
2013-04-05 04:00:00,34.7,28.8,-100.00,SW,232,2.5,10.7,78,0.00,,,-99.99,HOBO +U30 +Weather +,2013-04-05 08:00:00,
2013-04-05 04:15:00,34.9,28.8,-100.00,SW,234,1.6,9.6,78,0.00,,,-99.99,HOBO +U30 +Weather +,2013-04-05 08:15:00,
2013-04-05 04:30:00,34.7,28.6,-100.00,WSW,241,0.9,8.3,78,0.00,,,-99.99,HOBO +U30 +Weather +,2013-04-05 08:30:00,
2013-04-05 04:45:00,35.1,28.6,-100.00,WSW,250,0.0,9.6,76,0.00,,,-99.99,HOBO +U30 +Weather +,2013-04-05 08:45:00,
2013-04-05 05:00:00,35.6,28.5,-100.00,WSW,247,0.0,0.4,75,0.00,,,-99.99,HOBO +U30 +Weather +,2013-04-05 09:00:00,
2013-04-05 05:15:00,35.9,28.2,-100.00,WSW,243,0.9,12.5,73,0.00,,,-99.99,HOBO +U30 +Weather +,2013-04-05 09:15:00,
2013-04-05 05:30:00,35.6,28.0,-100.00,SW,234,0.9,12.5,73,0.00,,,-99.99,HOBO +U30 +Weather +,2013-04-05 09:30:00,
2013-04-05 05:45:00,35.5,27.9,-100.00,WSW,243,0.0,0.4,73,0.00,,,-99.99,HOBO +U30 +Weather +,2013-04-05 09:45:00,
2013-04-05 06:00:00,35.3,28.0,-100.00,SW,233,2.0,10.3,74,0.00,,,-99.99,HOBO +U30 +Weather +,2013-04-05 10:00:00,
2013-04-05 06:15:00,35.2,28.3,-100.00,SW,218,1.3,7.8,75,0.00,,,-99.99,HOBO +U30 +Weather +,2013-04-05 10:15:00,
2013-04-05 06:30:00,35.5,28.6,-100.00,SW,233,0.9,10.7,75,0.00,,,-99.99,HOBO +U30 +Weather +,2013-04-05 10:30:00,
2013-04-05 06:45:00,35.5,28.7,-100.00,WSW,239,3.4,10.3,76,0.00,,,-99.99,HOBO +U30 +Weather +,2013-04-05 10:45:00,
2013-04-05 07:00:00,35.8,28.9,-100.00,SW,234,2.9,7.8,75,0.00,,,-99.99,HOBO +U30 +Weather +,2013-04-05 11:00:00,
2013-04-05 07:30:00,36.6,29.2,-100.00,WSW,246,0.0,0.0,74,0.00,,,-99.99,HOBO +U30 +Weather +,2013-04-05 11:30:00,
2013-04-05 07:45:00,37.2,29.2,-100.00,WSW,258,0.0,0.0,72,0.00,,,-99.99,HOBO +U30 +Weather +,2013-04-05 11:45:00,
2013-04-05 08:00:00,37.7,29.3,-100.00,SW,230,0.0,0.0,71,0.00,,,-99.99,HOBO +U30 +Weather +,2013-04-05 12:00:00,
2013-04-05 08:15:00,38.3,29.4,-100.00,WSW,247,0.0,0.0,70,0.00,,,-99.99,HOBO +U30 +Weather +,2013-04-05 12:15:00,
2013-04-05 08:30:00,38.8,29.1,-100.00,WSW,256,0.0,0.0,67,0.00,,,-99.99,HOBO +U30 +Weather +,2013-04-05 12:30:00,
2013-04-05 08:45:00,39.7,29.0,-100.00,West,264,0.0,0.0,65,0.00,,,-99.99,HOBO +U30 +Weather +,2013-04-05 12:45:00,
2013-04-05 09:00:00,40.1,28.1,-100.00,WSW,253,0.0,0.0,62,0.00,,,-99.99,HOBO +U30 +Weather +,2013-04-05 13:00:00,
2013-04-05 09:45:00,41.7,26.7,-100.00,West,261,0.4,9.2,54,0.00,,,-99.99,HOBO +U30 +Weather +,2013-04-05 13:45:00,
2013-04-05 10:00:00,42.1,26.7,-100.00,WSW,251,0.0,0.0,54,0.00,,,-99.99,HOBO +U30 +Weather +,2013-04-05 14:00:00,
2013-04-05 10:30:00,42.0,26.9,-100.00,West,272,0.0,0.4,54,0.00,,,-99.99,HOBO +U30 +Weather +,2013-04-05 14:30:00,
2013-04-05 10:45:00,42.1,27.8,-100.00,West,264,1.3,6.7,56,0.00,,,-99.99,HOBO +U30 +Weather +,2013-04-05 14:45:00,
2013-04-05 11:00:00,42.2,27.6,-100.00,West,260,1.3,11.2,55,0.00,,,-99.99,HOBO +U30 +Weather +,2013-04-05 15:00:00,
2013-04-05 11:15:00,44.5,28.6,-100.00,WSW,254,0.0,0.4,53,0.00,,,-99.99,HOBO +U30 +Weather +,2013-04-05 15:15:00,
2013-04-05 11:30:00,44.9,28.4,-100.00,SW,236,0.0,0.0,52,0.00,,,-99.99,HOBO +U30 +Weather +,2013-04-05 15:30:00,
2013-04-05 11:45:00,45.8,28.1,-100.00,West,261,0.0,0.0,49,0.00,,,-99.99,HOBO +U30 +Weather +,2013-04-05 15:45:00,
2013-04-05 12:00:00,47.1,29.0,-100.00,WSW,241,0.0,0.9,49,0.00,,,-99.99,HOBO +U30 +Weather +,2013-04-05 16:00:00,
2013-04-05 12:15:00,48.4,28.3,-100.00,SSW,195,0.4,7.8,45,0.00,,,-99.99,HOBO +U30 +Weather +,2013-04-05 16:15:00,
2013-04-05 12:30:00,51.5,29.2,-100.00,SSE,154,1.3,6.3,41,0.00,,,-99.99,HOBO +U30 +Weather +,2013-04-05 16:30:00,
2013-04-05 12:45:00,51.5,28.4,-100.00,WSW,237,1.3,8.3,40,0.00,,,-99.99,HOBO +U30 +Weather +,2013-04-05 16:45:00,
2013-04-05 13:00:00,53.7,30.7,-100.00,WNW,282,0.4,6.3,41,0.00,,,-99.99,HOBO +U30 +Weather +,2013-04-05 17:00:00,
2013-04-05 13:15:00,54.4,31.0,-100.00,WNW,285,0.0,0.0,40,0.00,,,-99.99,HOBO +U30 +Weather +,2013-04-05 17:15:00,
2013-04-05 13:30:00,55.3,27.1,-100.00,SW,236,1.3,10.3,33,0.00,,,-99.99,HOBO +U30 +Weather +,2013-04-05 17:30:00,
2013-04-05 13:45:00,56.3,25.4,-100.00,West,263,0.0,0.4,30,0.00,,,-99.99,HOBO +U30 +Weather +,2013-04-05 17:45:00,
2013-04-05 14:00:00,57.3,25.4,-100.00,NW,310,0.0,0.0,29,0.00,,,-99.99,HOBO +U30 +Weather +,2013-04-05 18:00:00,
2013-04-05 14:15:00,58.1,22.8,-100.00,NW,309,0.0,0.0,25,0.00,,,-99.99,HOBO +U30 +Weather +,2013-04-05 18:15:00,
2013-04-05 14:30:00,57.4,23.2,-100.00,WNW,288,0.0,0.0,26,0.00,,,-99.99,HOBO +U30 +Weather +,2013-04-05 18:30:00,
2013-04-05 14:45:00,60.1,24.2,-100.00,NW,326,0.0,0.4,25,0.00,,,-99.99,HOBO +U30 +Weather +,2013-04-05 18:45:00,
2013-04-05 15:00:00,60.3,26.3,-100.00,NW,313,0.0,4.3,27,0.00,,,-99.99,HOBO +U30 +Weather +,2013-04-05 19:00:00,
2013-04-05 15:15:00,58.9,26.2,-100.00,NW,316,1.3,13.2,28,0.00,,,-99.99,HOBO +U30 +Weather +,2013-04-05 19:15:00,
2013-04-05 15:30:00,59.3,26.3,-100.00,NW,310,0.0,2.0,28,0.00,,,-99.99,HOBO +U30 +Weather +,2013-04-05 19:30:00,
2013-04-05 15:45:00,59.4,26.7,-100.00,NW,306,0.0,1.3,28,0.00,,,-99.99,HOBO +U30 +Weather +,2013-04-05 19:45:00,
2013-04-05 16:00:00,58.3,27.1,-100.00,NW,320,0.9,12.1,30,0.00,,,-99.99,HOBO +U30 +Weather +,2013-04-05 20:00:00,
2013-04-05 16:15:00,59.7,27.0,-100.00,NW,319,2.5,13.2,28,0.00,,,-99.99,HOBO +U30 +Weather +,2013-04-05 20:15:00,
2013-04-05 16:30:00,58.0,25.7,-100.00,NW,313,1.3,11.6,28,0.00,,,-99.99,HOBO +U30 +Weather +,2013-04-05 20:30:00,
2013-04-05 16:45:00,57.3,24.6,-100.00,NW,319,4.3,13.2,28,0.00,,,-99.99,HOBO +U30 +Weather +,2013-04-05 20:45:00,
2013-04-05 17:00:00,56.5,23.6,-100.00,NW,323,1.3,13.0,27,0.00,,,-99.99,HOBO +U30 +Weather +,2013-04-05 21:00:00,
2013-04-05 17:15:00,55.7,24.4,-100.00,NW,317,1.6,11.6,29,0.00,,,-99.99,HOBO +U30 +Weather +,2013-04-05 21:15:00,
2013-04-05 17:30:00,54.7,24.7,-100.00,NW,314,0.9,13.6,31,0.00,,,-99.99,HOBO +U30 +Weather +,2013-04-05 21:30:00,
2013-04-05 17:45:00,54.1,25.2,-100.00,NW,314,1.3,10.3,32,0.00,,,-99.99,HOBO +U30 +Weather +,2013-04-05 21:45:00,
2013-04-05 18:00:00,53.9,25.4,-100.00,NW,313,4.5,13.0,32,0.00,,,-99.99,HOBO +U30 +Weather +,2013-04-05 22:00:00,
2013-04-05 18:15:00,52.7,24.3,-100.00,NW,323,4.5,13.6,32,0.00,,,-99.99,HOBO +U30 +Weather +,2013-04-05 22:15:00,
2013-04-05 18:30:00,51.1,23.7,-100.00,NW,321,2.5,13.2,33,0.00,,,-99.99,HOBO +U30 +Weather +,2013-04-05 22:30:00,
2013-04-05 18:45:00,50.5,24.0,-100.00,NW,320,5.4,14.1,35,0.00,,,-99.99,HOBO +U30 +Weather +,2013-04-05 22:45:00,
2013-04-05 19:00:00,49.6,24.0,-100.00,NW,319,3.8,10.3,36,0.00,,,-99.99,HOBO +U30 +Weather +,2013-04-05 23:00:00,
2013-04-05 19:15:00,49.4,23.7,-100.00,NW,319,3.8,15.9,36,0.00,,,-99.99,HOBO +U30 +Weather +,2013-04-05 23:15:00,
2013-04-05 19:30:00,48.6,23.5,-100.00,NW,321,5.4,11.2,37,0.00,,,-99.99,HOBO +U30 +Weather +,2013-04-05 23:30:00,
2013-04-05 19:45:00,47.8,24.7,-100.00,NW,316,5.4,13.0,40,0.00,,,-99.99,HOBO +U30 +Weather +,2013-04-05 23:45:00,
2013-04-05 20:00:00,47.8,24.9,-100.00,NW,321,2.9,11.6,40,0.00,,,-99.99,HOBO +U30 +Weather +,2013-04-06 00:00:00,
2013-04-05 20:15:00,46.8,25.2,-100.00,NNW,330,2.5,14.5,42,0.00,,,-99.99,HOBO +U30 +Weather +,2013-04-06 00:15:00,
2013-04-05 20:30:00,45.8,24.9,-100.00,NNW,331,5.4,11.6,43,0.00,,,-99.99,HOBO +U30 +Weather +,2013-04-06 00:30:00,
2013-04-05 20:45:00,44.8,24.4,-100.00,NNW,327,5.4,14.1,44,0.00,,,-99.99,HOBO +U30 +Weather +,2013-04-06 00:45:00,
2013-04-05 21:00:00,44.2,24.0,-100.00,NNW,327,6.3,13.0,44,0.00,,,-99.99,HOBO +U30 +Weather +,2013-04-06 01:00:00,
2013-04-05 21:15:00,43.5,24.2,-100.00,NNW,330,5.8,15.4,46,0.00,,,-99.99,HOBO +U30 +Weather +,2013-04-06 01:15:00,
2013-04-05 21:30:00,42.2,25.2,-100.00,NNW,337,4.5,12.5,50,0.00,,,-99.99,HOBO +U30 +Weather +,2013-04-06 01:30:00,
2013-04-05 21:45:00,41.4,25.5,-100.00,NNW,333,4.3,11.6,52,0.00,,,-99.99,HOBO +U30 +Weather +,2013-04-06 01:45:00,
2013-04-05 22:00:00,40.7,26.4,-100.00,NNW,327,4.5,11.6,56,0.00,,,-99.99,HOBO +U30 +Weather +,2013-04-06 02:00:00,
2013-04-05 22:15:00,40.2,26.8,-100.00,NNW,330,5.8,15.9,58,0.00,,,-99.99,HOBO +U30 +Weather +,2013-04-06 02:15:00,
2013-04-05 22:30:00,39.3,26.6,-100.00,NNW,330,5.8,15.4,60,0.00,,,-99.99,HOBO +U30 +Weather +,2013-04-06 02:30:00,
2013-04-05 22:45:00,38.5,26.8,-100.00,NNW,331,5.8,13.2,62,0.00,,,-99.99,HOBO +U30 +Weather +,2013-04-06 02:45:00,
2013-04-05 23:00:00,38.1,27.2,-100.00,NNW,329,5.8,13.0,64,0.00,,,-99.99,HOBO +U30 +Weather +,2013-04-06 03:00:00,
2013-04-05 23:15:00,37.6,27.0,-100.00,NNW,331,2.5,12.5,65,0.00,,,-99.99,HOBO +U30 +Weather +,2013-04-06 03:15:00,
2013-04-05 23:30:00,36.9,27.0,-100.00,NNW,333,4.5,12.5,67,0.00,,,-99.99,HOBO +U30 +Weather +,2013-04-06 03:30:00,
2013-04-05 23:45:00,36.5,26.1,-100.00,NNW,336,5.4,13.6,65,0.00,,,-99.99,HOBO +U30 +Weather +,2013-04-06 03:45:00,